Time,TemperatureF,DewpointF,PressureIn,WindDirection,WindDirectionDegrees,WindSpeedMPH,WindSpeedGustMPH,Humidity,HourlyPrecipIn,Conditions,Clouds,dailyrainin,SoftwareType,DateUTC
2013-03-16 00:04:00,69.6,66.2,30.00,NE,38,0.0,1.0,89,0.00,CLR,,0.10,WeatherDisplay:10.37,2013-03-15 13:04:00,
2013-03-16 00:09:00,69.6,66.2,30.00,East,98,0.0,0.0,89,0.00,CLR,,0.10,WeatherDisplay:10.37,2013-03-15 13:09:00,
2013-03-16 00:14:00,69.6,66.2,29.99,ESE,107,0.0,0.0,89,0.00,CLR,,0.10,WeatherDisplay:10.37,2013-03-15 13:14:00,
2013-03-16 00:19:00,69.6,66.2,29.99,ESE,119,0.0,0.0,89,0.00,CLR,,0.10,WeatherDisplay:10.37,2013-03-15 13:19:00,
2013-03-16 00:24:00,69.6,66.2,29.99,SE,144,0.0,0.0,89,0.00,CLR,,0.10,WeatherDisplay:10.37,2013-03-15 13:24:00,
2013-03-16 00:29:00,69.6,66.2,29.99,SSE,160,0.0,0.0,89,0.00,CLR,,0.10,WeatherDisplay:10.37,2013-03-15 13:29:00,
2013-03-16 00:34:00,69.6,66.2,30.00,South,169,0.0,1.0,89,0.00,CLR,,0.10,WeatherDisplay:10.37,2013-03-15 13:34:00,
2013-03-16 00:39:00,69.6,66.2,29.99,South,178,0.0,0.0,89,0.00,CLR,,0.10,WeatherDisplay:10.37,2013-03-15 13:39:00,
2013-03-16 00:44:00,69.6,66.2,29.99,South,181,0.0,0.0,89,0.00,CLR,,0.10,WeatherDisplay:10.37,2013-03-15 13:44:00,
2013-03-16 00:49:00,69.6,66.2,29.99,West,280,0.0,0.0,89,0.00,CLR,,0.10,WeatherDisplay:10.37,2013-03-15 13:49:00,
2013-03-16 00:54:00,69.6,66.2,29.99,NW,305,0.0,0.0,89,0.00,CLR,,0.10,WeatherDisplay:10.37,2013-03-15 13:54:00,
2013-03-16 00:59:00,69.6,66.2,29.99,WNW,293,0.0,1.0,89,0.00,CLR,,0.10,WeatherDisplay:10.37,2013-03-15 13:59:00,
2013-03-16 01:04:00,69.6,66.2,29.99,NW,307,0.0,1.0,89,0.00,CLR,,0.10,WeatherDisplay:10.37,2013-03-15 14:04:00,
2013-03-16 01:09:00,69.6,66.2,29.99,North,356,0.0,1.0,89,0.00,CLR,,0.10,WeatherDisplay:10.37,2013-03-15 14:09:00,
2013-03-16 01:14:00,69.6,66.2,29.99,WNW,303,0.0,0.0,89,0.00,CLR,,0.10,WeatherDisplay:10.37,2013-03-15 14:14:00,
2013-03-16 01:19:00,69.6,66.2,29.99,West,274,0.0,0.0,89,0.00,CLR,,0.10,WeatherDisplay:10.37,2013-03-15 14:19:00,
2013-03-16 01:24:00,69.6,66.2,29.99,WSW,255,0.0,0.0,89,0.00,CLR,,0.10,WeatherDisplay:10.37,2013-03-15 14:24:00,
2013-03-16 01:29:00,69.6,66.2,29.99,West,274,0.0,0.0,89,0.00,CLR,,0.10,WeatherDisplay:10.37,2013-03-15 14:29:00,
2013-03-16 01:34:00,69.6,66.2,29.98,West,268,0.0,0.0,89,0.00,CLR,,0.10,WeatherDisplay:10.37,2013-03-15 14:34:00,
2013-03-16 01:39:00,69.6,66.2,29.98,WSW,239,0.0,0.0,89,0.00,CLR,,0.10,WeatherDisplay:10.37,2013-03-15 14:39:00,
2013-03-16 01:44:00,69.4,66.1,29.98,West,266,0.0,0.0,89,0.00,CLR,,0.10,WeatherDisplay:10.37,2013-03-15 14:44:00,
2013-03-16 01:49:00,69.6,66.2,29.98,NNW,342,0.0,0.0,89,0.00,CLR,,0.10,WeatherDisplay:10.37,2013-03-15 14:49:00,
2013-03-16 01:54:00,69.6,66.2,29.98,NNW,346,0.0,0.0,89,0.00,CLR,,0.10,WeatherDisplay:10.37,2013-03-15 14:54:00,
2013-03-16 01:59:00,69.6,66.2,29.98,WNW,293,0.0,0.0,89,0.00,CLR,,0.10,WeatherDisplay:10.37,2013-03-15 14:59:00,
2013-03-16 02:04:00,69.6,66.2,29.97,WSW,253,0.0,0.0,89,0.00,CLR,,0.10,WeatherDisplay:10.37,2013-03-15 15:04:00,
2013-03-16 02:09:00,69.6,66.2,29.97,SW,219,0.0,0.0,89,0.00,CLR,,0.10,WeatherDisplay:10.37,2013-03-15 15:09:00,
2013-03-16 02:14:00,69.6,66.2,29.97,SW,215,0.0,0.0,89,0.00,CLR,,0.10,WeatherDisplay:10.37,2013-03-15 15:14:00,
2013-03-16 02:19:00,69.6,66.2,29.97,SSW,213,0.0,0.0,89,0.00,CLR,,0.10,WeatherDisplay:10.37,2013-03-15 15:19:00,
2013-03-16 02:24:00,69.5,66.1,29.97,South,191,0.0,0.0,89,0.00,CLR,,0.10,WeatherDisplay:10.37,2013-03-15 15:24:00,
2013-03-16 02:29:00,69.6,66.2,29.97,SSE,149,0.0,0.0,89,0.00,CLR,,0.10,WeatherDisplay:10.37,2013-03-15 15:29:00,
2013-03-16 02:34:00,69.6,66.2,29.96,ESE,118,0.0,0.0,89,0.00,CLR,,0.10,WeatherDisplay:10.37,2013-03-15 15:34:00,
2013-03-16 02:39:00,69.6,66.2,29.96,SE,126,0.0,0.0,89,0.00,CLR,,0.10,WeatherDisplay:10.37,2013-03-15 15:39:00,
2013-03-16 02:44:00,69.4,66.1,29.96,SSE,149,0.0,0.0,89,0.00,CLR,,0.10,WeatherDisplay:10.37,2013-03-15 15:44:00,
2013-03-16 02:49:00,69.4,66.1,29.96,South,179,0.0,0.0,89,0.00,CLR,,0.10,WeatherDisplay:10.37,2013-03-15 15:49:00,
2013-03-16 02:54:00,69.4,66.1,29.96,SW,214,0.0,0.0,89,0.00,CLR,,0.10,WeatherDisplay:10.37,2013-03-15 15:54:00,
2013-03-16 02:59:00,69.4,66.1,29.96,NNW,337,0.0,0.0,89,0.00,CLR,,0.10,WeatherDisplay:10.37,2013-03-15 15:59:00,
2013-03-16 03:04:00,69.4,66.1,29.95,North,352,0.0,0.0,89,0.00,CLR,,0.10,WeatherDisplay:10.37,2013-03-15 16:04:00,
2013-03-16 03:09:00,69.4,66.1,29.95,NW,308,0.0,0.0,89,0.00,CLR,,0.10,WeatherDisplay:10.37,2013-03-15 16:09:00,
2013-03-16 03:14:00,69.4,66.1,29.95,WNW,292,0.0,0.0,89,0.00,CLR,,0.10,WeatherDisplay:10.37,2013-03-15 16:14:00,
2013-03-16 03:19:00,69.3,65.9,29.95,West,280,0.0,0.0,89,0.00,CLR,,0.10,WeatherDisplay:10.37,2013-03-15 16:19:00,
2013-03-16 03:24:00,69.4,66.1,29.95,West,270,0.0,0.0,89,0.00,CLR,,0.10,WeatherDisplay:10.37,2013-03-15 16:24:00,
2013-03-16 03:29:00,69.3,65.9,29.95,WNW,302,0.0,0.0,89,0.00,CLR,,0.10,WeatherDisplay:10.37,2013-03-15 16:29:00,
2013-03-16 03:34:00,69.4,66.0,29.94,NNW,343,0.0,0.0,89,0.00,CLR,,0.10,WeatherDisplay:10.37,2013-03-15 16:34:00,
2013-03-16 03:39:00,69.4,66.1,29.94,North,1,0.0,0.0,89,0.00,CLR,,0.10,WeatherDisplay:10.37,2013-03-15 16:39:00,
2013-03-16 03:44:00,69.3,65.9,29.94,NNE,29,0.0,0.0,89,0.00,CLR,,0.10,WeatherDisplay:10.37,2013-03-15 16:44:00,
2013-03-16 03:49:00,69.1,65.7,29.94,NE,45,0.0,0.0,89,0.00,CLR,,0.10,WeatherDisplay:10.37,2013-03-15 16:49:00,
2013-03-16 03:54:00,69.0,65.6,29.94,ENE,58,0.0,0.0,89,0.00,CLR,,0.10,WeatherDisplay:10.37,2013-03-15 16:54:00,
2013-03-16 03:59:00,68.9,65.5,29.94,ENE,68,0.0,0.0,89,0.00,CLR,,0.10,WeatherDisplay:10.37,2013-03-15 16:59:00,
2013-03-16 04:04:00,68.9,65.5,29.94,ENE,68,0.0,0.0,89,0.00,CLR,,0.10,WeatherDisplay:10.37,2013-03-15 17:04:00,
2013-03-16 04:09:00,68.7,65.3,29.94,ENE,68,0.0,0.0,89,0.00,CLR,,0.10,WeatherDisplay:10.37,2013-03-15 17:09:00,
2013-03-16 04:14:00,68.7,65.3,29.93,ENE,61,0.0,0.0,89,0.00,CLR,,0.10,WeatherDisplay:10.37,2013-03-15 17:14:00,
2013-03-16 04:19:00,68.7,65.3,29.93,NNE,30,0.0,0.0,89,0.00,CLR,,0.10,WeatherDisplay:10.37,2013-03-15 17:19:00,
2013-03-16 04:24:00,68.7,65.0,29.93,North,8,0.0,0.0,88,0.00,CLR,,0.10,WeatherDisplay:10.37,2013-03-15 17:24:00,
2013-03-16 04:29:00,68.5,64.8,29.93,North,3,0.0,0.0,88,0.00,CLR,,0.10,WeatherDisplay:10.37,2013-03-15 17:29:00,
2013-03-16 04:39:00,68.4,64.7,29.93,NNW,345,0.0,0.0,88,0.00,CLR,,0.10,WeatherDisplay:10.37,2013-03-15 17:39:00,
2013-03-16 04:44:00,68.4,64.7,29.93,NW,319,0.0,0.0,88,0.00,CLR,,0.10,WeatherDisplay:10.37,2013-03-15 17:44:00,
2013-03-16 04:49:00,68.4,64.7,29.93,NW,320,0.0,0.0,88,0.00,CLR,,0.10,WeatherDisplay:10.37,2013-03-15 17:49:00,
2013-03-16 04:54:00,68.2,64.5,29.92,North,7,0.0,0.0,88,0.00,CLR,,0.10,WeatherDisplay:10.37,2013-03-15 17:54:00,
2013-03-16 04:59:00,68.2,64.5,29.92,ENE,78,0.0,0.0,88,0.00,CLR,,0.10,WeatherDisplay:10.37,2013-03-15 17:59:00,
2013-03-16 05:04:00,68.1,64.4,29.92,NE,56,0.0,0.0,88,0.00,CLR,,0.10,WeatherDisplay:10.37,2013-03-15 18:04:00,
2013-03-16 05:09:00,67.8,63.8,29.92,North,4,0.0,0.0,87,0.00,CLR,,0.10,WeatherDisplay:10.37,2013-03-15 18:09:00,
2013-03-16 05:14:00,67.8,63.8,29.92,NNW,344,0.0,0.0,87,0.00,CLR,,0.10,WeatherDisplay:10.37,2013-03-15 18:14:00,
2013-03-16 05:19:00,67.6,63.6,29.92,NNW,327,0.0,0.0,87,0.00,CLR,,0.10,WeatherDisplay:10.37,2013-03-15 18:19:00,
2013-03-16 05:24:00,67.6,63.6,29.93,NW,304,0.0,0.0,87,0.00,CLR,,0.10,WeatherDisplay:10.37,2013-03-15 18:24:00,
2013-03-16 05:29:00,67.6,63.6,29.93,WNW,292,0.0,0.0,87,0.00,CLR,,0.10,WeatherDisplay:10.37,2013-03-15 18:29:00,
2013-03-16 05:34:00,67.6,63.6,29.93,NW,326,0.0,1.0,87,0.00,CLR,,0.10,WeatherDisplay:10.37,2013-03-15 18:34:00,
2013-03-16 05:39:00,67.6,63.6,29.93,NNE,12,0.0,1.0,87,0.00,CLR,,0.10,WeatherDisplay:10.37,2013-03-15 18:39:00,
2013-03-16 05:44:00,67.3,62.9,29.93,ENE,65,0.0,0.0,86,0.00,CLR,,0.10,WeatherDisplay:10.37,2013-03-15 18:44:00,
2013-03-16 05:49:00,67.2,63.2,29.93,East,90,0.0,0.0,87,0.00,CLR,,0.10,WeatherDisplay:10.37,2013-03-15 18:49:00,
2013-03-16 05:54:00,67.0,62.7,29.93,East,90,0.0,0.0,86,0.00,CLR,,0.10,WeatherDisplay:10.37,2013-03-15 18:54:00,
2013-03-16 05:59:00,66.9,62.6,29.93,East,90,0.0,0.0,86,0.00,CLR,,0.10,WeatherDisplay:10.37,2013-03-15 18:59:00,
2013-03-16 06:04:00,66.9,62.9,29.93,East,90,0.0,0.0,87,0.00,CLR,,0.10,WeatherDisplay:10.37,2013-03-15 19:04:00,
2013-03-16 06:09:00,66.9,62.6,29.93,NE,50,0.0,0.0,86,0.00,CLR,,0.10,WeatherDisplay:10.37,2013-03-15 19:09:00,
2013-03-16 06:14:00,66.9,62.9,29.93,WNW,302,0.0,0.0,87,0.00,CLR,,0.10,WeatherDisplay:10.37,2013-03-15 19:14:00,
2013-03-16 06:19:00,66.9,62.9,29.93,WNW,292,0.0,0.0,87,0.00,CLR,,0.10,WeatherDisplay:10.37,2013-03-15 19:19:00,
2013-03-16 06:24:00,66.8,62.5,29.93,NW,312,0.0,1.0,86,0.00,CLR,,0.10,WeatherDisplay:10.37,2013-03-15 19:24:00,
2013-03-16 06:29:00,66.7,62.4,29.93,NW,304,0.0,0.0,86,0.00,CLR,,0.10,WeatherDisplay:10.37,2013-03-15 19:29:00,
2013-03-16 06:34:00,66.7,62.4,29.93,South,173,0.0,0.0,86,0.00,CLR,,0.10,WeatherDisplay:10.37,2013-03-15 19:34:00,
2013-03-16 06:39:00,66.6,62.6,29.93,SE,141,0.0,0.0,87,0.00,CLR,,0.10,WeatherDisplay:10.37,2013-03-15 19:39:00,
2013-03-16 06:44:00,66.5,62.2,29.93,ESE,118,0.0,0.0,86,0.00,CLR,,0.10,WeatherDisplay:10.37,2013-03-15 19:44:00,
2013-03-16 06:54:00,66.2,61.9,29.92,ESE,112,0.0,0.0,86,0.00,CLR,,0.10,WeatherDisplay:10.37,2013-03-15 19:54:00,
2013-03-16 06:59:00,66.0,61.7,29.92,ESE,122,0.0,0.0,86,0.00,CLR,,0.10,WeatherDisplay:10.37,2013-03-15 19:59:00,
2013-03-16 07:04:00,66.0,61.7,29.92,SE,132,0.0,0.0,86,0.00,CLR,,0.10,WeatherDisplay:10.37,2013-03-15 20:04:00,
2013-03-16 07:09:00,66.0,61.7,29.92,South,191,0.0,0.0,86,0.00,CLR,,0.10,WeatherDisplay:10.37,2013-03-15 20:09:00,
2013-03-16 07:14:00,66.2,61.9,29.92,WSW,246,0.0,0.0,86,0.00,CLR,,0.10,WeatherDisplay:10.37,2013-03-15 20:14:00,
2013-03-16 07:19:00,66.2,62.2,29.93,WSW,248,0.0,0.0,87,0.00,CLR,,0.10,WeatherDisplay:10.37,2013-03-15 20:19:00,
2013-03-16 07:24:00,66.4,62.1,29.93,WSW,246,0.0,0.0,86,0.00,CLR,,0.10,WeatherDisplay:10.37,2013-03-15 20:24:00,
2013-03-16 07:29:00,66.3,62.0,29.93,SW,220,0.0,0.0,86,0.00,CLR,,0.10,WeatherDisplay:10.37,2013-03-15 20:29:00,
2013-03-16 07:34:00,66.2,62.2,29.93,SSW,202,0.0,0.0,87,0.00,CLR,,0.10,WeatherDisplay:10.37,2013-03-15 20:34:00,
2013-03-16 07:39:00,66.1,62.1,29.93,SSW,202,0.0,0.0,87,0.00,CLR,,0.10,WeatherDisplay:10.37,2013-03-15 20:39:00,
2013-03-16 07:44:00,66.4,62.4,29.93,South,191,0.0,1.0,87,0.00,CLR,,0.10,WeatherDisplay:10.37,2013-03-15 20:44:00,
2013-03-16 07:49:00,66.4,62.4,29.93,SE,139,0.0,0.0,87,0.00,CLR,,0.10,WeatherDisplay:10.37,2013-03-15 20:49:00,
2013-03-16 07:54:00,66.4,62.7,29.93,SE,146,0.0,0.0,88,0.00,CLR,,0.10,WeatherDisplay:10.37,2013-03-15 20:54:00,
2013-03-16 07:59:00,66.5,62.8,29.93,SSE,158,0.0,0.0,88,0.00,CLR,,0.10,WeatherDisplay:10.37,2013-03-15 20:59:00,
2013-03-16 08:04:00,66.6,62.9,29.93,SSE,158,0.0,0.0,88,0.00,CLR,,0.10,WeatherDisplay:10.37,2013-03-15 21:04:00,
2013-03-16 08:09:00,66.7,63.1,29.93,SSE,158,0.0,0.0,88,0.00,CLR,,0.10,WeatherDisplay:10.37,2013-03-15 21:09:00,
2013-03-16 08:14:00,66.7,63.1,29.93,SSE,158,0.0,0.0,88,0.00,CLR,,0.10,WeatherDisplay:10.37,2013-03-15 21:14:00,
2013-03-16 08:19:00,66.9,63.2,29.93,SSE,163,0.0,1.0,88,0.00,CLR,,0.10,WeatherDisplay:10.37,2013-03-15 21:19:00,
2013-03-16 08:29:00,67.3,63.6,29.94,SSW,200,0.0,0.0,88,0.00,CLR,,0.10,WeatherDisplay:10.37,2013-03-15 21:29:00,
2013-03-16 08:34:00,67.6,64.3,29.94,South,172,0.0,0.0,89,0.00,CLR,,0.10,WeatherDisplay:10.37,2013-03-15 21:34:00,
2013-03-16 08:39:00,67.6,64.3,29.94,SSE,152,0.0,0.0,89,0.00,CLR,,0.10,WeatherDisplay:10.37,2013-03-15 21:39:00,
2013-03-16 08:44:00,67.8,64.5,29.94,SE,136,0.0,1.0,89,0.00,CLR,,0.10,WeatherDisplay:10.37,2013-03-15 21:44:00,
2013-03-16 08:49:00,67.8,64.5,29.94,SE,134,0.0,0.0,89,0.00,CLR,,0.10,WeatherDisplay:10.37,2013-03-15 21:49:00,
2013-03-16 08:54:00,68.2,64.8,29.94,ESE,103,1.0,3.0,89,0.00,CLR,,0.10,WeatherDisplay:10.37,2013-03-15 21:54:00,
2013-03-16 08:59:00,68.5,65.2,29.93,NNE,22,1.0,3.0,89,0.00,RA,,0.00,WeatherDisplay:10.37,2013-03-15 21:59:00,
2013-03-16 09:04:00,68.7,65.4,29.93,NNW,347,0.0,2.0,89,0.00,RA,,0.00,WeatherDisplay:10.37,2013-03-15 22:04:00,
2013-03-16 09:09:00,69.1,65.7,29.94,NNW,345,2.0,3.0,89,0.00,CLR,,0.00,WeatherDisplay:10.37,2013-03-15 22:09:00,
2013-03-16 09:14:00,69.4,66.1,29.94,NNW,346,2.0,2.0,89,0.00,CLR,,0.00,WeatherDisplay:10.37,2013-03-15 22:14:00,
2013-03-16 09:19:00,69.6,65.9,29.94,NNW,340,1.0,3.0,88,0.00,CLR,,0.00,WeatherDisplay:10.37,2013-03-15 22:19:00,
2013-03-16 09:24:00,69.6,65.9,29.94,NNW,334,1.0,4.0,88,0.00,CLR,,0.00,WeatherDisplay:10.37,2013-03-15 22:24:00,
2013-03-16 09:29:00,70.0,65.9,29.93,NW,321,2.0,5.0,87,0.00,CLR,,0.00,WeatherDisplay:10.37,2013-03-15 22:29:00,
2013-03-16 09:34:00,70.3,66.2,29.93,NW,325,2.0,3.0,87,0.00,CLR,,0.00,WeatherDisplay:10.37,2013-03-15 22:34:00,
2013-03-16 09:39:00,70.6,65.9,29.93,NNW,348,3.0,7.0,85,0.00,CLR,,0.00,WeatherDisplay:10.37,2013-03-15 22:39:00,
2013-03-16 09:44:00,70.9,65.8,29.93,North,352,1.0,5.0,84,0.00,CLR,,0.00,WeatherDisplay:10.37,2013-03-15 22:44:00,
2013-03-16 09:49:00,71.2,65.8,29.93,NNW,347,2.0,6.0,83,0.00,CLR,,0.00,WeatherDisplay:10.37,2013-03-15 22:49:00,
2013-03-16 09:54:00,71.7,65.9,29.93,North,1,2.0,8.0,82,0.00,CLR,,0.00,WeatherDisplay:10.37,2013-03-15 22:54:00,
2013-03-16 09:59:00,72.1,66.0,29.93,North,354,3.0,6.0,81,0.00,CLR,,0.00,WeatherDisplay:10.37,2013-03-15 22:59:00,
2013-03-16 10:04:00,72.3,66.5,29.93,NNW,329,1.0,5.0,82,0.00,CLR,,0.00,WeatherDisplay:10.37,2013-03-15 23:04:00,
2013-03-16 10:09:00,72.1,66.3,29.93,NW,315,2.0,4.0,82,0.00,CLR,,0.00,WeatherDisplay:10.37,2013-03-15 23:09:00,
2013-03-16 10:14:00,71.8,66.0,29.93,NW,307,1.0,4.0,82,0.00,CLR,,0.00,WeatherDisplay:10.37,2013-03-15 23:14:00,
2013-03-16 10:19:00,71.8,66.0,29.93,NW,309,2.0,4.0,82,0.00,CLR,,0.00,WeatherDisplay:10.37,2013-03-15 23:19:00,
2013-03-16 10:24:00,72.0,65.8,29.93,NW,307,2.0,5.0,81,0.00,CLR,,0.00,WeatherDisplay:10.37,2013-03-15 23:24:00,
2013-03-16 10:29:00,72.3,66.2,29.93,WNW,303,2.0,5.0,81,0.00,CLR,,0.00,WeatherDisplay:10.37,2013-03-15 23:29:00,
2013-03-16 10:34:00,72.7,65.8,29.93,NW,307,2.0,5.0,79,0.00,CLR,,0.00,WeatherDisplay:10.37,2013-03-15 23:34:00,
2013-03-16 10:39:00,73.0,66.1,29.93,NW,316,3.0,5.0,79,0.00,CLR,,0.00,WeatherDisplay:10.37,2013-03-15 23:39:00,
2013-03-16 10:44:00,73.2,65.6,29.93,NW,313,3.0,6.0,77,0.00,CLR,,0.00,WeatherDisplay:10.37,2013-03-15 23:44:00,
2013-03-16 10:49:00,73.2,65.9,29.93,NW,306,1.0,5.0,78,0.00,CLR,,0.00,WeatherDisplay:10.37,2013-03-15 23:49:00,
2013-03-16 10:54:00,73.2,65.9,29.93,NW,317,2.0,6.0,78,0.00,CLR,,0.00,WeatherDisplay:10.37,2013-03-15 23:54:00,
2013-03-16 10:59:00,73.2,65.9,29.93,NNW,335,2.0,6.0,78,0.00,CLR,,0.00,WeatherDisplay:10.37,2013-03-15 23:59:00,
2013-03-16 11:04:00,73.7,66.0,29.92,NNW,328,3.0,6.0,77,0.00,CLR,,0.00,WeatherDisplay:10.37,2013-03-16 00:04:00,
2013-03-16 11:09:00,73.9,66.3,29.92,NW,314,2.0,7.0,77,0.00,CLR,,0.00,WeatherDisplay:10.37,2013-03-16 00:09:00,
2013-03-16 11:19:00,74.1,66.4,29.92,NW,321,3.0,6.0,77,0.00,CLR,,0.00,WeatherDisplay:10.37,2013-03-16 00:19:00,
2013-03-16 11:24:00,74.3,66.6,29.92,NW,320,1.0,6.0,77,0.00,CLR,,0.00,WeatherDisplay:10.37,2013-03-16 00:24:00,
2013-03-16 11:29:00,74.5,66.8,29.91,NW,310,3.0,8.0,77,0.00,CLR,,0.00,WeatherDisplay:10.37,2013-03-16 00:29:00,
2013-03-16 11:34:00,75.0,66.6,29.91,NNW,345,2.0,7.0,75,0.00,CLR,,0.00,WeatherDisplay:10.37,2013-03-16 00:34:00,
2013-03-16 11:39:00,75.0,66.6,29.91,North,353,6.0,8.0,75,0.00,CLR,,0.00,WeatherDisplay:10.37,2013-03-16 00:39:00,
2013-03-16 11:44:00,75.3,66.8,29.90,North,351,3.0,6.0,75,0.00,CLR,,0.00,WeatherDisplay:10.37,2013-03-16 00:44:00,
2013-03-16 11:49:00,75.6,66.7,29.90,NNW,348,1.0,6.0,74,0.00,CLR,,0.00,WeatherDisplay:10.37,2013-03-16 00:49:00,
2013-03-16 11:54:00,75.9,66.6,29.90,North,359,2.0,7.0,73,0.00,CLR,,0.00,WeatherDisplay:10.37,2013-03-16 00:54:00,
2013-03-16 11:59:00,76.3,67.0,29.89,NNW,344,3.0,9.0,73,0.00,CLR,,0.00,WeatherDisplay:10.37,2013-03-16 00:59:00,
2013-03-16 12:04:00,76.3,67.0,29.89,NNW,343,3.0,6.0,73,0.00,CLR,,0.00,WeatherDisplay:10.37,2013-03-16 01:04:00,
2013-03-16 12:09:00,76.7,67.0,29.89,North,3,3.0,9.0,72,0.00,CLR,,0.00,WeatherDisplay:10.37,2013-03-16 01:09:00,
2013-03-16 12:14:00,76.4,67.1,29.88,North,358,0.0,3.0,73,0.00,CLR,,0.00,WeatherDisplay:10.37,2013-03-16 01:14:00,
2013-03-16 12:19:00,76.6,67.3,29.88,NNW,338,3.0,6.0,73,0.00,CLR,,0.00,WeatherDisplay:10.37,2013-03-16 01:19:00,
2013-03-16 12:24:00,76.9,67.2,29.88,WNW,289,2.0,6.0,72,0.00,CLR,,0.00,WeatherDisplay:10.37,2013-03-16 01:24:00,
2013-03-16 12:29:00,77.2,67.0,29.88,WNW,287,2.0,7.0,71,0.00,CLR,,0.00,WeatherDisplay:10.37,2013-03-16 01:29:00,
2013-03-16 12:34:00,77.4,67.2,29.87,NW,310,1.0,7.0,71,0.00,CLR,,0.00,WeatherDisplay:10.37,2013-03-16 01:34:00,
2013-03-16 12:39:00,77.5,67.0,29.87,North,352,3.0,8.0,70,0.00,CLR,,0.00,WeatherDisplay:10.37,2013-03-16 01:39:00,
2013-03-16 12:44:00,77.4,67.3,29.87,North,7,0.0,3.0,71,0.00,CLR,,0.00,WeatherDisplay:10.37,2013-03-16 01:44:00,
2013-03-16 12:49:00,77.5,67.8,29.87,NNW,327,2.0,5.0,72,0.00,CLR,,0.00,WeatherDisplay:10.37,2013-03-16 01:49:00,
2013-03-16 12:54:00,78.0,67.4,29.86,North,357,2.0,7.0,70,0.00,CLR,,0.00,WeatherDisplay:10.37,2013-03-16 01:54:00,
2013-03-16 12:59:00,78.4,67.8,29.86,NNE,19,2.0,6.0,70,0.00,CLR,,0.00,WeatherDisplay:10.37,2013-03-16 01:59:00,
2013-03-16 13:04:00,78.6,68.0,29.85,NW,322,2.0,7.0,70,0.00,CLR,,0.00,WeatherDisplay:10.37,2013-03-16 02:04:00,
2013-03-16 13:09:00,78.6,67.6,29.85,WNW,300,1.0,7.0,69,0.00,CLR,,0.00,WeatherDisplay:10.37,2013-03-16 02:09:00,
2013-03-16 13:14:00,78.6,67.2,29.85,NW,307,1.0,6.0,68,0.00,CLR,,0.00,WeatherDisplay:10.37,2013-03-16 02:14:00,
2013-03-16 13:19:00,79.2,67.7,29.84,NNW,337,6.0,7.0,68,0.00,CLR,,0.00,WeatherDisplay:10.37,2013-03-16 02:19:00,
2013-03-16 13:24:00,79.2,67.3,29.84,NNW,338,1.0,5.0,67,0.00,CLR,,0.00,WeatherDisplay:10.37,2013-03-16 02:24:00,
2013-03-16 13:29:00,79.5,67.2,29.84,NNW,333,2.0,7.0,66,0.00,CLR,,0.00,WeatherDisplay:10.37,2013-03-16 02:29:00,
2013-03-16 13:34:00,79.5,67.2,29.83,NW,305,2.0,6.0,66,0.00,CLR,,0.00,WeatherDisplay:10.37,2013-03-16 02:34:00,
2013-03-16 13:39:00,79.5,67.2,29.83,WNW,284,1.0,6.0,66,0.00,CLR,,0.00,WeatherDisplay:10.37,2013-03-16 02:39:00,
2013-03-16 13:44:00,79.7,67.8,29.83,NW,323,3.0,9.0,67,0.00,CLR,,0.00,WeatherDisplay:10.37,2013-03-16 02:44:00,
2013-03-16 13:49:00,79.9,67.6,29.82,NNW,347,1.0,6.0,66,0.00,CLR,,0.00,WeatherDisplay:10.37,2013-03-16 02:49:00,
2013-03-16 13:54:00,80.2,67.8,29.82,North,355,7.0,9.0,66,0.00,CLR,,0.00,WeatherDisplay:10.37,2013-03-16 02:54:00,
2013-03-16 13:59:00,80.4,67.6,29.81,NNW,331,0.0,7.0,65,0.00,CLR,,0.00,WeatherDisplay:10.37,2013-03-16 02:59:00,
2013-03-16 14:04:00,80.4,67.6,29.81,NW,316,2.0,7.0,65,0.00,CLR,,0.00,WeatherDisplay:10.37,2013-03-16 03:04:00,
2013-03-16 14:09:00,80.8,67.9,29.81,NNW,343,5.0,8.0,65,0.00,CLR,,0.00,WeatherDisplay:10.37,2013-03-16 03:09:00,
2013-03-16 14:14:00,81.0,68.1,29.81,NNW,347,6.0,14.0,65,0.00,CLR,,0.00,WeatherDisplay:10.37,2013-03-16 03:14:00,
2013-03-16 14:19:00,81.3,68.4,29.81,NNW,334,2.0,6.0,65,0.00,CLR,,0.00,WeatherDisplay:10.37,2013-03-16 03:19:00,
2013-03-16 14:24:00,81.4,68.1,29.80,NNW,335,1.0,5.0,64,0.00,CLR,,0.00,WeatherDisplay:10.37,2013-03-16 03:24:00,
2013-03-16 14:29:00,81.3,68.0,29.80,North,352,5.0,8.0,64,0.00,CLR,,0.00,WeatherDisplay:10.37,2013-03-16 03:29:00,
2013-03-16 14:34:00,81.5,68.1,29.79,North,353,5.0,6.0,64,0.00,CLR,,0.00,WeatherDisplay:10.37,2013-03-16 03:34:00,
2013-03-16 14:39:00,81.7,67.9,29.79,NNW,342,5.0,9.0,63,0.00,CLR,,0.00,WeatherDisplay:10.37,2013-03-16 03:39:00,
2013-03-16 14:44:00,81.7,68.3,29.79,North,3,6.0,13.0,64,0.00,CLR,,0.00,WeatherDisplay:10.37,2013-03-16 03:44:00,
2013-03-16 14:49:00,81.9,68.0,29.78,NNE,20,7.0,10.0,63,0.00,CLR,,0.00,WeatherDisplay:10.37,2013-03-16 03:49:00,
2013-03-16 14:54:00,82.2,68.3,29.78,North,3,5.0,8.0,63,0.00,CLR,,0.00,WeatherDisplay:10.37,2013-03-16 03:54:00,
2013-03-16 14:59:00,82.2,68.4,29.78,NNW,347,2.0,5.0,63,0.00,CLR,,0.00,WeatherDisplay:10.37,2013-03-16 03:59:00,
2013-03-16 15:04:00,82.5,68.2,29.78,NNW,337,2.0,9.0,62,0.00,CLR,,0.00,WeatherDisplay:10.37,2013-03-16 04:04:00,
2013-03-16 15:09:00,82.6,68.7,29.78,NW,324,3.0,6.0,63,0.00,CLR,,0.00,WeatherDisplay:10.37,2013-03-16 04:09:00,
2013-03-16 15:14:00,82.8,68.9,29.77,NW,320,3.0,8.0,63,0.00,CLR,,0.00,WeatherDisplay:10.37,2013-03-16 04:14:00,
2013-03-16 15:19:00,82.9,68.6,29.77,NNW,328,2.0,6.0,62,0.00,CLR,,0.00,WeatherDisplay:10.37,2013-03-16 04:19:00,
2013-03-16 15:24:00,83.1,69.2,29.77,NNW,328,2.0,7.0,63,0.00,CLR,,0.00,WeatherDisplay:10.37,2013-03-16 04:24:00,
2013-03-16 15:29:00,83.1,68.8,29.77,NNW,328,3.0,9.0,62,0.00,CLR,,0.00,WeatherDisplay:10.37,2013-03-16 04:29:00,
2013-03-16 15:34:00,83.4,68.6,29.76,NW,325,2.0,9.0,61,0.00,CLR,,0.00,WeatherDisplay:10.37,2013-03-16 04:34:00,
2013-03-16 15:39:00,83.5,69.1,29.76,NW,318,3.0,5.0,62,0.00,CLR,,0.00,WeatherDisplay:10.37,2013-03-16 04:39:00,
2013-03-16 15:44:00,83.5,68.1,29.76,NW,319,1.0,9.0,60,0.00,CLR,,0.00,WeatherDisplay:10.37,2013-03-16 04:44:00,
2013-03-16 15:49:00,83.6,68.2,29.76,NNW,333,5.0,8.0,60,0.00,CLR,,0.00,WeatherDisplay:10.37,2013-03-16 04:49:00,
2013-03-16 15:54:00,83.8,68.5,29.76,NNW,329,2.0,6.0,60,0.00,CLR,,0.00,WeatherDisplay:10.37,2013-03-16 04:54:00,
2013-03-16 15:59:00,84.0,68.6,29.75,NW,310,5.0,7.0,60,0.00,CLR,,0.00,WeatherDisplay:10.37,2013-03-16 04:59:00,
2013-03-16 16:04:00,84.0,68.6,29.75,NW,310,2.0,6.0,60,0.00,CLR,,0.00,WeatherDisplay:10.37,2013-03-16 05:04:00,
2013-03-16 16:09:00,84.0,68.2,29.77,NW,321,1.0,5.0,59,0.00,CLR,,0.00,WeatherDisplay:10.37,2013-03-16 05:09:00,
2013-03-16 16:14:00,84.2,68.3,29.77,NNE,28,3.0,7.0,59,0.00,CLR,,0.00,WeatherDisplay:10.37,2013-03-16 05:14:00,
2013-03-16 16:19:00,84.0,68.1,29.77,ENE,57,2.0,7.0,59,0.00,CLR,,0.00,WeatherDisplay:10.37,2013-03-16 05:19:00,
2013-03-16 16:24:00,84.0,67.7,29.77,NNE,25,3.0,8.0,58,0.00,CLR,,0.00,WeatherDisplay:10.37,2013-03-16 05:24:00,
2013-03-16 16:29:00,84.0,68.6,29.77,NE,52,5.0,8.0,60,0.00,CLR,,0.00,WeatherDisplay:10.37,2013-03-16 05:29:00,
2013-03-16 16:34:00,83.3,68.9,29.77,East,85,5.0,10.0,62,0.00,CLR,,0.00,WeatherDisplay:10.37,2013-03-16 05:34:00,
2013-03-16 16:39:00,82.9,69.0,29.77,East,83,8.0,12.0,63,0.00,CLR,,0.00,WeatherDisplay:10.37,2013-03-16 05:39:00,
2013-03-16 16:44:00,82.2,68.4,29.77,East,81,3.0,9.0,63,0.00,CLR,,0.00,WeatherDisplay:10.37,2013-03-16 05:44:00,
2013-03-16 16:49:00,82.0,68.7,29.76,East,84,6.0,12.0,64,0.00,CLR,,0.00,WeatherDisplay:10.37,2013-03-16 05:49:00,
2013-03-16 16:54:00,81.7,68.8,29.77,East,93,6.0,11.0,65,0.00,CLR,,0.00,WeatherDisplay:10.37,2013-03-16 05:54:00,
2013-03-16 16:59:00,81.5,68.6,29.76,East,87,9.0,12.0,65,0.00,CLR,,0.00,WeatherDisplay:10.37,2013-03-16 05:59:00,
2013-03-16 17:04:00,81.3,68.4,29.76,East,84,5.0,13.0,65,0.00,CLR,,0.00,WeatherDisplay:10.37,2013-03-16 06:04:00,
2013-03-16 17:09:00,81.1,68.6,29.75,East,79,6.0,11.0,66,0.00,CLR,,0.00,WeatherDisplay:10.37,2013-03-16 06:09:00,
2013-03-16 17:14:00,80.9,68.5,29.75,ENE,75,5.0,10.0,66,0.00,CLR,,0.00,WeatherDisplay:10.37,2013-03-16 06:14:00,
2013-03-16 17:19:00,80.8,68.8,29.74,ENE,74,8.0,11.0,67,0.00,CLR,,0.00,WeatherDisplay:10.37,2013-03-16 06:19:00,
2013-03-16 17:24:00,80.4,68.5,29.74,ENE,74,3.0,13.0,67,0.00,CLR,,0.00,WeatherDisplay:10.37,2013-03-16 06:24:00,
2013-03-16 17:29:00,80.2,68.3,29.74,ENE,76,6.0,12.0,67,0.00,CLR,,0.00,WeatherDisplay:10.37,2013-03-16 06:29:00,
2013-03-16 17:34:00,80.1,68.5,29.74,East,82,6.0,10.0,68,0.00,CLR,,0.00,WeatherDisplay:10.37,2013-03-16 06:34:00,
2013-03-16 17:39:00,79.9,68.4,29.74,East,89,5.0,13.0,68,0.00,CLR,,0.00,WeatherDisplay:10.37,2013-03-16 06:39:00,
2013-03-16 17:44:00,79.7,68.2,29.74,ENE,78,3.0,8.0,68,0.00,CLR,,0.00,WeatherDisplay:10.37,2013-03-16 06:44:00,
2013-03-16 17:49:00,79.5,68.5,29.74,East,79,7.0,13.0,69,0.00,CLR,,0.00,WeatherDisplay:10.37,2013-03-16 06:49:00,
2013-03-16 17:54:00,79.5,68.5,29.74,East,88,6.0,13.0,69,0.00,CLR,,0.00,WeatherDisplay:10.37,2013-03-16 06:54:00,
2013-03-16 17:59:00,79.5,68.5,29.74,East,90,5.0,6.0,69,0.00,CLR,,0.00,WeatherDisplay:10.37,2013-03-16 06:59:00,
2013-03-16 18:04:00,79.3,68.3,29.75,East,83,6.0,12.0,69,0.00,CLR,,0.00,WeatherDisplay:10.37,2013-03-16 07:04:00,
2013-03-16 18:09:00,79.1,68.1,29.74,East,81,3.0,8.0,69,0.00,CLR,,0.00,WeatherDisplay:10.37,2013-03-16 07:09:00,
2013-03-16 18:14:00,78.9,67.9,29.74,ENE,76,2.0,14.0,69,0.00,CLR,,0.00,WeatherDisplay:10.37,2013-03-16 07:14:00,
2013-03-16 18:19:00,78.8,67.8,29.75,ENE,78,5.0,7.0,69,0.00,CLR,,0.00,WeatherDisplay:10.37,2013-03-16 07:19:00,
2013-03-16 18:24:00,78.6,68.0,29.75,ENE,76,3.0,8.0,70,0.00,CLR,,0.00,WeatherDisplay:10.37,2013-03-16 07:24:00,
2013-03-16 18:29:00,78.5,67.9,29.75,ENE,73,2.0,7.0,70,0.00,CLR,,0.00,WeatherDisplay:10.37,2013-03-16 07:29:00,
2013-03-16 18:34:00,78.4,67.8,29.75,ENE,70,1.0,5.0,70,0.00,CLR,,0.00,WeatherDisplay:10.37,2013-03-16 07:34:00,
2013-03-16 18:39:00,78.3,67.7,29.75,ENE,69,2.0,5.0,70,0.00,CLR,,0.00,WeatherDisplay:10.37,2013-03-16 07:39:00,
2013-03-16 18:44:00,78.1,67.5,29.75,ENE,71,1.0,4.0,70,0.00,CLR,,0.00,WeatherDisplay:10.37,2013-03-16 07:44:00,
2013-03-16 18:49:00,77.9,67.4,29.75,ENE,73,1.0,5.0,70,0.00,CLR,,0.00,WeatherDisplay:10.37,2013-03-16 07:49:00,
2013-03-16 18:54:00,77.9,67.3,29.75,East,87,3.0,6.0,70,0.00,CLR,,0.00,WeatherDisplay:10.37,2013-03-16 07:54:00,
2013-03-16 18:59:00,77.7,67.2,29.75,East,92,5.0,7.0,70,0.00,CLR,,0.00,WeatherDisplay:10.37,2013-03-16 07:59:00,
2013-03-16 19:04:00,77.5,67.4,29.75,East,85,2.0,3.0,71,0.00,CLR,,0.00,WeatherDisplay:10.37,2013-03-16 08:04:00,
2013-03-16 19:09:00,77.5,67.4,29.75,East,94,2.0,5.0,71,0.00,CLR,,0.00,WeatherDisplay:10.37,2013-03-16 08:09:00,
2013-03-16 19:14:00,77.4,67.6,29.75,East,93,2.0,4.0,72,0.00,CLR,,0.00,WeatherDisplay:10.37,2013-03-16 08:14:00,
2013-03-16 19:19:00,77.4,67.6,29.75,East,96,1.0,3.0,72,0.00,CLR,,0.00,WeatherDisplay:10.37,2013-03-16 08:19:00,
2013-03-16 19:24:00,77.2,67.5,29.75,East,93,0.0,3.0,72,0.00,CLR,,0.00,WeatherDisplay:10.37,2013-03-16 08:24:00,
2013-03-16 19:29:00,77.2,67.5,29.75,East,85,1.0,4.0,72,0.00,CLR,,0.00,WeatherDisplay:10.37,2013-03-16 08:29:00,
2013-03-16 19:34:00,77.2,67.9,29.75,East,86,1.0,3.0,73,0.00,CLR,,0.00,WeatherDisplay:10.37,2013-03-16 08:34:00,
2013-03-16 19:39:00,76.9,67.6,29.75,East,93,1.0,2.0,73,0.00,CLR,,0.00,WeatherDisplay:10.37,2013-03-16 08:39:00,
2013-03-16 19:44:00,76.8,67.5,29.75,East,80,2.0,4.0,73,0.00,CLR,,0.00,WeatherDisplay:10.37,2013-03-16 08:44:00,
2013-03-16 19:49:00,76.8,67.5,29.75,ENE,63,2.0,5.0,73,0.00,CLR,,0.00,WeatherDisplay:10.37,2013-03-16 08:49:00,
2013-03-16 19:54:00,76.6,67.3,29.75,NE,50,2.0,5.0,73,0.00,CLR,,0.00,WeatherDisplay:10.37,2013-03-16 08:54:00,
2013-03-16 19:59:00,76.5,66.8,29.75,NE,44,0.0,3.0,72,0.00,CLR,,0.00,WeatherDisplay:10.37,2013-03-16 08:59:00,
2013-03-16 20:04:00,76.3,67.0,29.75,NE,51,0.0,3.0,73,0.00,CLR,,0.00,WeatherDisplay:10.37,2013-03-16 09:04:00,
2013-03-16 20:09:00,76.3,67.0,29.75,NE,53,0.0,2.0,73,0.00,CLR,,0.00,WeatherDisplay:10.37,2013-03-16 09:09:00,
2013-03-16 20:14:00,76.3,67.0,29.75,East,81,0.0,1.0,73,0.00,CLR,,0.00,WeatherDisplay:10.37,2013-03-16 09:14:00,
2013-03-16 20:19:00,76.2,66.9,29.75,East,84,0.0,2.0,73,0.00,CLR,,0.00,WeatherDisplay:10.37,2013-03-16 09:19:00,
2013-03-16 20:24:00,76.1,66.8,29.75,East,79,0.0,0.0,73,0.00,CLR,,0.00,WeatherDisplay:10.37,2013-03-16 09:24:00,
2013-03-16 20:29:00,76.0,66.7,29.75,East,91,0.0,1.0,73,0.00,CLR,,0.00,WeatherDisplay:10.37,2013-03-16 09:29:00,
2013-03-16 20:34:00,75.9,67.0,29.75,SE,126,0.0,2.0,74,0.00,CLR,,0.00,WeatherDisplay:10.37,2013-03-16 09:34:00,
2013-03-16 20:39:00,75.8,67.0,29.75,SSE,165,0.0,2.0,74,0.00,CLR,,0.00,WeatherDisplay:10.37,2013-03-16 09:39:00,
2013-03-16 20:44:00,75.7,66.9,29.75,SSE,168,0.0,2.0,74,0.00,CLR,,0.00,WeatherDisplay:10.37,2013-03-16 09:44:00,
2013-03-16 20:49:00,75.7,66.9,29.75,SSE,148,0.0,1.0,74,0.00,CLR,,0.00,WeatherDisplay:10.37,2013-03-16 09:49:00,
2013-03-16 20:54:00,75.7,66.9,29.76,SSE,155,0.0,2.0,74,0.00,CLR,,0.00,WeatherDisplay:10.37,2013-03-16 09:54:00,
2013-03-16 20:59:00,75.7,66.9,29.76,South,181,1.0,2.0,74,0.00,CLR,,0.00,WeatherDisplay:10.37,2013-03-16 09:59:00,
2013-03-16 21:04:00,75.6,67.1,29.76,SSW,198,1.0,3.0,75,0.00,CLR,,0.00,WeatherDisplay:10.37,2013-03-16 10:04:00,
2013-03-16 21:09:00,75.6,67.1,29.76,SSW,206,1.0,3.0,75,0.00,CLR,,0.00,WeatherDisplay:10.37,2013-03-16 10:09:00,
2013-03-16 21:14:00,75.4,66.9,29.76,SSW,200,0.0,1.0,75,0.00,CLR,,0.00,WeatherDisplay:10.37,2013-03-16 10:14:00,
2013-03-16 21:19:00,75.4,66.9,29.76,SSW,205,0.0,0.0,75,0.00,CLR,,0.00,WeatherDisplay:10.37,2013-03-16 10:19:00,
2013-03-16 21:24:00,75.4,67.3,29.76,SSW,213,0.0,1.0,76,0.00,CLR,,0.00,WeatherDisplay:10.37,2013-03-16 10:24:00,
2013-03-16 21:29:00,75.0,66.6,29.76,SSW,197,0.0,0.0,75,0.00,CLR,,0.00,WeatherDisplay:10.37,2013-03-16 10:29:00,
2013-03-16 21:34:00,75.0,66.9,29.76,SSW,202,0.0,1.0,76,0.00,CLR,,0.00,WeatherDisplay:10.37,2013-03-16 10:34:00,
2013-03-16 21:39:00,75.0,66.9,29.76,WSW,242,0.0,1.0,76,0.00,CLR,,0.00,WeatherDisplay:10.37,2013-03-16 10:39:00,
2013-03-16 21:44:00,74.8,66.8,29.76,WSW,249,0.0,1.0,76,0.00,CLR,,0.00,WeatherDisplay:10.37,2013-03-16 10:44:00,
2013-03-16 21:49:00,74.8,66.8,29.76,West,267,0.0,0.0,76,0.00,CLR,,0.00,WeatherDisplay:10.37,2013-03-16 10:49:00,
2013-03-16 21:54:00,74.8,66.7,29.76,West,266,0.0,1.0,76,0.00,CLR,,0.00,WeatherDisplay:10.37,2013-03-16 10:54:00,
2013-03-16 21:59:00,74.7,67.0,29.76,West,261,0.0,2.0,77,0.00,CLR,,0.00,WeatherDisplay:10.37,2013-03-16 10:59:00,
2013-03-16 22:04:00,74.5,66.8,29.76,SSW,208,1.0,3.0,77,0.00,CLR,,0.00,WeatherDisplay:10.37,2013-03-16 11:04:00,
2013-03-16 22:09:00,74.5,66.8,29.77,SW,216,0.0,2.0,77,0.00,CLR,,0.00,WeatherDisplay:10.37,2013-03-16 11:09:00,
2013-03-16 22:14:00,74.5,67.2,29.77,SW,221,1.0,1.0,78,0.00,CLR,,0.00,WeatherDisplay:10.37,2013-03-16 11:14:00,
2013-03-16 22:19:00,74.3,67.0,29.76,SW,226,0.0,2.0,78,0.00,CLR,,0.00,WeatherDisplay:10.37,2013-03-16 11:19:00,
2013-03-16 22:24:00,74.3,67.0,29.77,SW,223,2.0,3.0,78,0.00,CLR,,0.00,WeatherDisplay:10.37,2013-03-16 11:24:00,
2013-03-16 22:34:00,74.1,66.8,29.77,SSW,208,3.0,8.0,78,0.00,CLR,,0.00,WeatherDisplay:10.37,2013-03-16 11:34:00,
2013-03-16 22:39:00,73.9,66.6,29.76,SSW,194,1.0,4.0,78,0.00,CLR,,0.00,WeatherDisplay:10.37,2013-03-16 11:39:00,
2013-03-16 22:44:00,73.9,67.0,29.76,SSW,194,2.0,6.0,79,0.00,CLR,,0.00,WeatherDisplay:10.37,2013-03-16 11:44:00,
2013-03-16 22:49:00,73.8,66.8,29.77,SSW,209,1.0,2.0,79,0.00,CLR,,0.00,WeatherDisplay:10.37,2013-03-16 11:49:00,
2013-03-16 22:54:00,73.7,66.8,29.76,SW,231,0.0,2.0,79,0.00,CLR,,0.00,WeatherDisplay:10.37,2013-03-16 11:54:00,
2013-03-16 22:59:00,73.6,66.7,29.76,WNW,284,0.0,1.0,79,0.00,CLR,,0.00,WeatherDisplay:10.37,2013-03-16 11:59:00,
2013-03-16 23:04:00,73.8,66.8,29.76,SW,221,0.0,0.0,79,0.00,CLR,,0.00,WeatherDisplay:10.37,2013-03-16 12:04:00,
2013-03-16 23:09:00,73.7,66.8,29.76,SSW,197,1.0,2.0,79,0.00,CLR,,0.00,WeatherDisplay:10.37,2013-03-16 12:09:00,
2013-03-16 23:14:00,73.6,66.7,29.76,SSW,213,0.0,1.0,79,0.00,CLR,,0.00,WeatherDisplay:10.37,2013-03-16 12:14:00,
2013-03-16 23:19:00,73.6,67.0,29.76,SW,215,0.0,2.0,80,0.00,CLR,,0.00,WeatherDisplay:10.37,2013-03-16 12:19:00,
2013-03-16 23:24:00,73.4,66.9,29.76,SSW,194,1.0,2.0,80,0.00,CLR,,0.00,WeatherDisplay:10.37,2013-03-16 12:24:00,
2013-03-16 23:29:00,73.2,66.7,29.76,SW,216,0.0,1.0,80,0.00,CLR,,0.00,WeatherDisplay:10.37,2013-03-16 12:29:00,
2013-03-16 23:34:00,73.2,66.7,29.75,West,281,0.0,0.0,80,0.00,CLR,,0.00,WeatherDisplay:10.37,2013-03-16 12:34:00,
2013-03-16 23:39:00,73.0,66.5,29.75,NW,306,0.0,0.0,80,0.00,CLR,,0.00,WeatherDisplay:10.37,2013-03-16 12:39:00,
2013-03-16 23:44:00,73.0,66.5,29.75,NW,318,0.0,0.0,80,0.00,CLR,,0.00,WeatherDisplay:10.37,2013-03-16 12:44:00,
2013-03-16 23:49:00,73.0,66.5,29.75,NW,307,0.0,0.0,80,0.00,CLR,,0.00,WeatherDisplay:10.37,2013-03-16 12:49:00,
2013-03-16 23:54:00,72.9,66.3,29.75,WNW,284,0.0,1.0,80,0.00,CLR,,0.00,WeatherDisplay:10.37,2013-03-16 12:54:00,
2013-03-16 23:59:00,72.7,66.5,29.75,West,262,0.0,2.0,81,0.00,CLR,,0.00,WeatherDisplay:10.37,2013-03-16 12:59:00,